Lake Jordan Weather Center

Moon Phase Calendar



Lake Jordan Water Level
Online Cameras

 


      

Current Conditions in Holtville
10/4/2022 1:18:10 AM

60°F
Feels Like 58
Clouds
Humidity
60%
Pressure
30.06"
Wind
3.5 mph (E)
Dew Point
46°F
UV Index
0/10 (Low)
Visibility
6 mi

Hourly Forecast

Date & Time Tue, Oct 4
1:00 AM
Tue, Oct 4
2:00 AM
Tue, Oct 4
3:00 AM
Tue, Oct 4
4:00 AM
Tue, Oct 4
5:00 AM
Tue, Oct 4
6:00 AM
Tue, Oct 4
7:00 AM
Tue, Oct 4
8:00 AM
Tue, Oct 4
9:00 AM
Tue, Oct 4
10:00 AM
Tue, Oct 4
11:00 AM
Tue, Oct 4
12:00 PM
Tue, Oct 4
1:00 PM
Tue, Oct 4
2:00 PM
Tue, Oct 4
3:00 PM
Tue, Oct 4
4:00 PM
Tue, Oct 4
5:00 PM
Tue, Oct 4
6:00 PM
Tue, Oct 4
7:00 PM
Tue, Oct 4
8:00 PM
Tue, Oct 4
9:00 PM
Tue, Oct 4
10:00 PM
Tue, Oct 4
11:00 PM
Wed, Oct 5
12:00 AM
Wed, Oct 5
1:00 AM
Wed, Oct 5
2:00 AM
Wed, Oct 5
3:00 AM
Wed, Oct 5
4:00 AM
Wed, Oct 5
5:00 AM
Wed, Oct 5
6:00 AM
Wed, Oct 5
7:00 AM
Wed, Oct 5
8:00 AM
Wed, Oct 5
9:00 AM
Wed, Oct 5
10:00 AM
Wed, Oct 5
11:00 AM
Wed, Oct 5
12:00 PM
Wed, Oct 5
1:00 PM
Wed, Oct 5
2:00 PM
Wed, Oct 5
3:00 PM
Wed, Oct 5
4:00 PM
Wed, Oct 5
5:00 PM
Wed, Oct 5
6:00 PM
Wed, Oct 5
7:00 PM
Wed, Oct 5
8:00 PM
Wed, Oct 5
9:00 PM
Wed, Oct 5
10:00 PM
Wed, Oct 5
11:00 PM
Thu, Oct 6
12:00 AM
Condition
Clouds

Clouds

Clouds

Clouds

Clear

Clear

Clear

Clouds

Clouds

Clouds

Clouds

Clouds

Clouds

Clear

Clear

Clouds

Clouds

Clouds

Clouds

Clouds

Clouds

Clouds

Clouds

Clouds

Clouds

Clouds

Clouds

Clouds

Clouds

Clouds

Clouds

Clouds

Clouds

Clouds

Clouds

Clouds

Clouds

Clouds

Clouds

Clouds

Clouds

Clouds

Clouds

Clear

Clear

Clear

Clear

Clear
Temperature 60°F60°F60°F59°F58°F56°F56°F61°F66°F70°F74°F79°F81°F82°F82°F81°F80°F74°F69°F66°F65°F63°F62°F61°F60°F60°F59°F58°F57°F56°F56°F61°F68°F73°F77°F80°F82°F83°F83°F83°F81°F72°F67°F65°F63°F61°F60°F59°F
Feels Like 58°F59°F59°F58°F57°F56°F55°F60°F65°F69°F73°F79°F81°F81°F81°F80°F80°F73°F68°F65°F64°F62°F61°F60°F59°F59°F58°F56°F55°F55°F55°F60°F66°F72°F76°F80°F80°F80°F81°F80°F79°F71°F66°F63°F61°F59°F58°F57°F
Cloudiness 36%29%22%15%8%0%3%35%41%57%58%50%42%5%2%34%39%48%57%99%85%90%90%92%85%100%100%79%69%73%75%96%98%99%99%94%93%43%24%17%16%23%27%1%1%0%0%0%
Visibility 6 mi6 mi6 mi6 mi6 mi6 mi6 mi6 mi6 mi6 mi6 mi6 mi6 mi6 mi6 mi6 mi6 mi6 mi6 mi6 mi6 mi6 mi6 mi6 mi6 mi6 mi6 mi6 mi6 mi6 mi6 mi6 mi6 mi6 mi6 mi6 mi6 mi6 mi6 mi6 mi6 mi6 mi6 mi6 mi6 mi6 mi6 mi6 mi
Precipitation 0%0%0%0%0%0%0%0%0%0%0%0%0%0%0%0%0%0%0%0%0%0%0%0%0%0%0%0%0%0%0%0%0%0%0%0%0%0%0%0%0%0%0%0%0%0%0%0%
Humidity 60%64%68%74%80%88%89%75%64%56%49%43%40%37%35%35%37%50%55%58%61%62%63%63%63%62%61%63%65%68%69%60%50%41%35%31%27%23%22%21%25%35%36%36%38%39%39%39%
Dew Point 46°F48°F49°F51°F52°F52°F52°F52°F53°F53°F53°F54°F54°F53°F52°F51°F51°F53°F51°F51°F50°F50°F49°F48°F47°F46°F45°F45°F45°F45°F46°F47°F48°F48°F47°F46°F44°F42°F40°F39°F41°F43°F39°F37°F36°F36°F35°F34°F
Pressure 30.06"30.06"30.06"30.09"30.09"30.12"30.12"30.12"30.15"30.15"30.12"30.12"30.09"30.06"30.03"30"30"30"30.03"30.03"30.06"30.06"30.06"30.06"30.06"30.06"30.06"30.06"30.06"30.06"30.09"30.09"30.09"30.09"30.09"30.06"30.06"30.03"30"30"30"30"30.03"30.06"30.06"30.06"30.06"30.06"
Wind Speed 3.5 mph2.8 mph3.5 mph3.8 mph3.8 mph3.7 mph3.6 mph3.9 mph4 mph3.7 mph3.3 mph1.9 mph1.8 mph2.8 mph2.4 mph2.4 mph2.4 mph1.3 mph1.4 mph1.9 mph3.1 mph3.4 mph3.8 mph3.8 mph4.1 mph3.7 mph3.9 mph4.1 mph3.7 mph3.3 mph3 mph2.1 mph2.2 mph3.1 mph4.6 mph5.8 mph6.4 mph6.7 mph6.8 mph6.5 mph5.6 mph4.4 mph4.7 mph4.6 mph4.4 mph4.2 mph3.7 mph3.4 mph
Wind
Direction
86°
E
91°
E
92°
E
97°
E
127°
SE
127°
SE
124°
SE
120°
ESE
131°
SE
145°
SE
160°
SSE
194°
SSW
254°
WSW
274°
W
297°
WNW
305°
NW
307°
NW
296°
WNW
332°
NNW
340°
NNW

N
15°
NNE
37°
NE
43°
NE
35°
NE
25°
NNE
18°
NNE
16°
NNE
17°
NNE
18°
NNE
18°
NNE

N
349°
N
337°
NNW
322°
NW
320°
NW
321°
NW
325°
NW
331°
NNW
341°
NNW
354°
N
13°
NNE
21°
NNE
20°
NNE
14°
NNE
18°
NNE
23°
NNE
29°
NNE

Daily Forecast

Date High Low Precip. Humidity
Today
Oct 4

Clouds
82 °F
56 °F
0%
43%
Wednesday
Oct 5

Clouds
83 °F
56 °F
0%
31%
Thursday
Oct 6

Clear
85 °F
54 °F
0%
18%
Friday
Oct 7

Clouds
86 °F
58 °F
0%
25%
Saturday
Oct 8

Clouds
76 °F
55 °F
0%
21%
Sunday
Oct 9

Clear
77 °F
48 °F
0%
18%
Monday
Oct 10

Clouds
80 °F
50 °F
0%
28%
Tuesday
Oct 11

Clear
82 °F
54 °F
0%
42%
Wednesday
Oct 12

Clouds
88 °F
59 °F
0%
40%
Thursday
Oct 13

Clouds
89 °F
64 °F
0%
38%
Friday
Oct 14

Clear
82 °F
59 °F
0%
36%
Saturday
Oct 15

Clouds
88 °F
55 °F
0%
43%
Sunday
Oct 16

Clouds
81 °F
64 °F
0%
40%
Monday
Oct 17

Rain
80 °F
61 °F
38%
53%
Tuesday
Oct 18

Clouds
79 °F
59 °F
0%
43%
Wednesday
Oct 19

Clear
79 °F
58 °F
0%
37%

Temperature 8-14 Day Outlook



Precipitation 8-14 Day Outlook




Quick Links
Lake Jordan News
Lake Jordan Photos
Lake Jordan Videos




About Us
Contact Us
Site Map
Search Site
Advertise With Us
   
www.LakeJordan.info
THE LAKE JORDAN WEBSITE

Copyright 2022, Lakes Online
Privacy    |    Legal